Location: Équennes
(49.7375°N, 1.9622°E)
Time: 00:30:19
(UTC+00:00)

Cosmos 1656 - Pass Details

Date: 07 October 2023
Orbit: 797 x 849 km, 71.1° (Epoch: 03 December)

Event Time Altitude Azimuth Distance (km) Brightness Sun altitude
Rises 19:35:22 0° 335° (NNW) 3,317 7.5 -22.7°
Reaches altitude 10° 19:38:42 10° 355° (N) 2,388 6.3 -23.2°
Maximum altitude 19:42:11 17° 35° (NE) 1,951 5.4 -23.7°
Enters shadow 19:42:20 17° 37° (NE) 1,953 5.4 -23.7°
